Temperature
13 12 12 12 11 11 11 10 10 10 10 10 9 9 9 9 9 9 9 9 9 9 9 9 9 9 9 10 10 11 11 11 12 12 13 12 12 13 13 13 14 14 14
13 12 12 11 11 11 11 10 10 10 10 9 9 9 9 9 9 9 9 9 9 9 9 9 9 9 9 9 10 10 11 11 11 11 12 12 12 12 13 13 13 14 14
13 12 12 11 11 11 10 10 10 10 9 9 9 9 9 9 9 9 8 8 8 8 8 8 8 8 8 9 9 9 10 10 11 11 12 12 12 12 12 13 13 14 14
13 13 12 11 11 11 10 10 10 9 9 9 9 9 9 9 9 9 8 8 8 8 8 8 8 8 8 8 9 9 9 10 10 11 11 12 12 12 12 12 13 13 13
13 12 12 11 11 10 10 10 10 9 9 9 9 9 9 9 9 9 8 8 8 8 8 8 8 8 8 8 8 9 9 9 10 11 11 12 12 12 12 12 12 12 13
13 12 12 11 11 10 10 10 9 9 9 9 9 9 9 9 9 9 9 8 8 8 8 8 8 8 8 8 8 8 8 8 9 10 11 11 11 12 12 12 12 12 12
13 12 12 11 11 10 10 10 9 9 9 9 9 9 9 9 9 9 9 8 8 8 8 8 8 9 8 8 8 8 8 8 8 8 9 10 11 11 11 11 12 12 12
13 12 12 11 11 10 10 10 9 9 9 9 9 9 9 9 9 9 8 8 8 8 8 8 8 8 8 8 7 8 8 8 8 8 8 9 9 10 10 10 11 11 12
13 12 12 11 10 10 10 9 9 9 9 9 9 9 8 9 9 8 8 8 8 8 8 8 8 7 7 7 7 7 7 8 8 8 8 8 9 9 10 10 11 11 11
13 12 12 11 10 10 10 10 9 9 9 9 9 9 8 9 9 8 8 8 8 8 8 8 7 7 7 7 6 6 7 7 8 8 8 8 8 9 9 10 10 11 11
13 12 11 11 10 10 10 10 9 9 9 9 9 9 9 9 8 8 8 8 7 7 8 8 8 7 7 7 7 6 6 7 7 7 8 8 8 8 9 9 10 10 11
13 12 11 11 10 10 10 10 9 9 9 9 9 9 9 9 8 8 8 8 7 7 7 7 7 7 7 7 6 7 7 6 6 7 8 8 9 9 9 10 10 10 10
13 12 12 11 11 10 10 9 9 9 9 9 9 9 10 9 9 8 8 8 7 7 7 7 7 7 7 7 7 6 6 6 6 7 7 8 9 9 9 9 10 10 10
14 13 12 11 11 10 10 10 10 10 10 10 9 9 9 9 9 8 8 7 7 7 7 7 7 7 7 7 6 6 6 6 6 7 7 8 9 9 9 9 9 9 10
14 13 12 11 11 10 10 10 10 9 9 9 9 9 9 9 9 8 8 7 7 7 6 7 7 7 7 7 7 6 6 6 6 7 7 8 8 8 9 9 9 9 9
13 12 12 12 11 11 10 10 10 10 9 9 9 9 9 8 8 8 8 8 7 7 7 6 7 7 7 7 7 7 7 7 7 7 7 7 8 8 8 9 9 9 9
14 13 12 12 11 11 11 10 10 10 10 9 9 9 9 9 8 8 8 8 7 7 7 7 7 7 7 7 7 7 7 7 7 7 7 7 8 8 8 9 9 9 9
13 12 12 12 11 11 11 10 10 10 10 10 10 9 9 9 9 8 8 8 7 7 7 7 7 7 7 7 7 7 7 7 7 7 7 7 7 8 8 8 9 9 9
13 12 12 12 11 11 10 10 10 10 10 10 10 9 9 9 8 8 8 8 7 7 7 7 7 7 7 7 7 7 7 7 7 7 7 7 7 8 8 8 9 9 9
12 12 12 11 11 11 11 10 10 10 10 10 10 10 9 9 9 8 8 8 7 7 7 7 7 7 7 7 7 7 7 7 7 7 7 7 7 8 8 8 8 9 9
12 12 12 11 11 11 11 10 10 10 10 10 10 10 9 8 9 8 8 8 7 7 7 7 7 7 7 7 7 7 7 7 7 7 7 8 8 8 8 8 8 8 9
11 11 11 11 11 10 10 10 10 10 9 9 9 9 9 8 8 8 8 8 8 7 7 7 7 7 7 7 7 7 7 7 7 8 8 8 8 8 8 8 8 8 9
10 10 11 11 10 10 9 9 9 9 9 9 9 9 9 8 8 8 8 8 8 7 7 7 7 7 7 7 7 7 7 7 7 8 8 8 8 8 8 8 8 8 8
10 10 10 10 10 10 10 9 9 9 9 9 9 9 8 8 8 8 8 8 7 7 7 7 7 7 7 7 7 7 7 7 7 8 8 8 8 8 8 8 8 8 8
9 9 9 9 9 9 9 9 9 9 8 8 8 8 8 8 8 8 8 8 7 7 7 7 7 7 7 7 7 7 7 7 7 7 8 8 8 8 8 8 8 8 8
8 8 8 9 8 8 8 8 8 8 8 8 8 8 8 8 8 8 7 7 7 7 7 7 7 7 7 6 6 6 7 7 7 7 7 8 8 8 8 8 8 8 8
Wind_Speed
6 6 7 7 8 8 9 9 9 10 10 10 11 11 11 11 10 10 11 11 11 12 11 12 12 12 11 11 11 11 11 11 12 11 8 6 6 7 6 6 7 7 9
6 6 7 7 8 9 10 9 9 10 11 11 11 12 12 12 11 11 12 12 12 13 13 12 13 11 12 12 11 12 12 11 13 13 10 8 7 7 7 6 5 5 6
6 7 8 8 9 9 10 10 10 11 11 12 12 12 12 12 12 11 12 12 13 13 13 13 13 13 13 12 12 12 12 12 12 13 12 9 8 7 6 6 6 4 3
6 7 8 9 9 9 10 10 11 11 11 12 12 12 12 12 12 12 12 12 12 13 13 13 14 14 14 13 12 13 13 13 13 13 12 11 9 7 6 6 5 4 3
7 8 8 9 9 10 10 11 11 11 11 11 12 12 12 12 11 11 11 12 12 13 13 13 14 13 13 12 12 12 12 12 12 12 12 11 10 8 7 6 6 4 4
7 8 8 9 9 10 10 11 11 11 11 11 12 12 12 11 5 4 10 13 14 14 14 14 13 14 15 16 18 18 16 15 14 13 12 12 11 10 8 7 6 5 4
7 8 9 9 10 10 11 11 11 11 11 11 11 12 13 12 8 8 10 12 15 15 15 14 13 12 11 14 16 20 20 21 20 17 16 14 12 11 9 10 8 7 5
8 8 9 9 10 10 11 11 11 11 11 11 11 12 12 12 8 9 9 13 15 15 15 15 14 14 13 12 14 15 16 17 18 18 17 17 15 12 10 10 8 7 5
8 8 9 9 10 11 11 11 11 11 11 11 12 12 12 12 9 9 10 11 13 15 14 14 14 14 10 8 13 15 16 15 15 15 15 14 11 8 7 9 9 7 6
8 8 8 9 10 11 11 12 11 10 11 12 12 12 12 13 8 8 9 10 12 12 12 12 12 13 9 6 12 15 16 16 15 14 16 16 17 16 13 13 12 10 7
7 8 9 9 10 11 11 11 11 11 11 12 13 12 12 12 9 9 10 9 11 12 11 10 8 7 9 10 12 14 14 13 14 14 14 14 15 15 15 16 14 12 9
7 8 9 9 10 10 10 11 11 11 12 12 11 12 10 9 7 6 10 12 11 12 12 11 7 3 6 10 11 12 12 11 13 13 13 13 14 14 14 14 15 14 10
8 9 9 10 9 10 11 11 11 10 10 10 10 10 10 8 6 10 12 13 13 11 11 10 9 8 10 12 16 15 12 12 13 13 13 13 13 13 12 11 13 12 11
9 9 9 9 10 10 9 10 10 10 10 10 10 10 10 9 8 6 6 7 11 12 11 11 14 16 14 13 10 11 12 12 12 13 13 12 11 11 11 11 12 11 10
10 10 10 10 10 9 9 9 10 10 9 10 11 11 11 11 7 7 8 10 9 8 9 10 11 10 10 10 10 10 10 11 13 13 12 12 11 11 12 12 11 11 11
10 10 9 8 8 8 9 10 10 13 12 13 15 15 12 13 13 11 11 12 13 10 8 11 11 10 10 9 9 9 9 10 11 12 12 11 11 11 12 12 11 12 12
11 10 9 9 9 9 9 10 10 9 14 18 19 18 18 17 16 15 14 13 13 10 9 11 11 10 10 9 9 9 9 9 9 10 11 11 11 11 11 12 12 12 12
11 11 10 9 9 9 9 10 10 10 11 10 11 17 18 18 17 16 12 9 10 9 10 11 11 10 10 9 9 9 8 8 8 9 10 11 11 11 12 12 12 13 12
11 10 9 9 9 10 10 10 10 11 11 11 10 7 12 14 16 14 10 9 10 9 9 10 10 10 9 9 8 8 8 8 9 9 9 11 10 11 11 12 12 13 12
11 13 11 9 10 10 10 10 10 10 10 10 9 9 7 7 8 6 7 8 9 9 9 9 9 9 9 8 8 8 8 8 9 9 9 9 10 10 11 13 12 12 12
11 10 12 11 11 10 10 10 9 9 9 10 9 6 4 9 9 9 8 7 8 9 9 8 8 9 8 7 7 9 10 9 9 9 9 9 10 10 10 10 11 12 11
10 10 10 10 9 9 9 9 9 9 10 10 9 6 5 7 8 8 7 7 7 7 8 7 7 8 8 7 7 8 9 9 9 9 9 9 9 10 10 10 10 10 11
11 11 10 9 9 9 8 10 9 9 9 9 8 8 7 6 7 7 7 7 7 6 7 7 7 7 7 7 7 7 8 8 8 8 9 9 10 10 10 10 12 11 11
10 10 10 9 9 9 9 8 8 9 9 8 8 7 7 6 6 7 7 7 7 6 5 6 6 8 9 8 7 7 7 7 7 8 10 10 10 10 10 10 10 11 11
10 9 9 8 8 8 8 8 8 7 7 7 7 6 6 6 6 6 7 7 7 6 7 6 5 6 8 10 9 8 5 4 6 7 8 9 10 10 10 11 10 10 11
10 8 8 7 7 7 7 7 6 6 7 6 6 6 6 6 6 6 6 7 7 7 7 6 7 8 9 9 9 7 3 4 6 7 8 8 9 10 10 10 11 11 12
Wind_Direction
263 270 280 281 283 282 281 285 288 290 291 286 285 285 283 280 277 272 272 276 270 269 269 265 262 268 271 272 267 263 261 261 267 273 273 274 280 288 287 282 274 246 228
266 272 276 281 282 283 285 289 289 288 287 288 286 284 282 280 277 273 272 273 271 269 267 267 265 263 260 263 267 266 264 263 265 271 274 272 267 276 274 272 269 258 231
269 272 278 281 284 286 289 290 290 289 288 289 287 284 283 281 278 274 273 273 271 269 268 265 263 262 262 262 263 265 265 260 256 262 265 264 265 264 269 263 256 248 237
273 277 281 284 289 291 292 291 289 290 289 289 288 286 284 282 278 274 273 273 272 270 267 263 262 259 259 260 261 259 262 265 261 259 261 259 254 252 255 257 249 233 220
270 277 283 286 289 290 292 291 291 291 289 289 288 286 283 280 274 277 281 278 277 274 269 264 260 258 265 267 268 267 263 259 260 255 255 255 250 246 248 247 247 235 223
267 278 287 289 289 291 294 293 293 291 289 288 286 285 284 281 300 291 278 282 280 276 273 269 265 252 243 239 249 260 267 266 265 265 259 256 256 251 248 250 246 233 226
269 278 285 287 288 293 296 297 295 293 290 288 286 285 284 283 269 251 254 272 275 275 274 271 269 266 250 250 239 234 243 247 252 261 267 266 264 253 251 247 240 241 237
272 279 285 287 289 293 295 295 294 292 291 289 288 287 286 284 259 244 251 264 269 271 271 269 268 270 266 263 263 256 250 242 236 238 248 258 262 271 261 253 258 248 240
272 278 285 289 291 293 294 296 295 292 290 290 288 288 287 285 260 236 248 275 271 272 272 271 270 270 266 245 258 262 261 257 246 238 246 256 278 287 283 262 244 233 228
274 280 285 285 287 290 292 294 293 290 287 289 290 290 287 285 270 226 235 272 276 278 276 271 258 252 270 243 256 257 256 255 255 243 230 237 245 243 235 244 246 235 226
275 278 278 280 283 284 287 287 288 287 289 290 290 287 283 278 269 232 227 264 280 284 283 280 279 200 224 234 246 256 260 268 262 255 247 237 232 232 229 224 230 237 229
266 269 273 277 283 289 287 285 284 285 284 283 284 287 287 278 262 241 216 238 269 279 279 281 288 180 233 243 245 251 255 261 256 253 246 240 232 227 224 223 220 226 232
256 263 270 276 280 282 282 283 283 280 281 288 292 294 297 299 275 213 222 233 238 255 273 290 293 270 261 253 240 239 240 241 241 242 241 238 235 232 227 220 220 218 220
252 260 265 270 274 277 279 279 282 286 288 290 292 295 299 299 298 298 280 255 230 243 262 264 245 244 247 259 256 228 232 236 235 238 241 242 240 232 224 219 214 205 204
250 256 263 268 275 281 278 277 280 283 291 291 294 297 299 300 326 355 312 299 299 308 306 284 276 267 254 247 245 241 234 230 229 234 237 238 236 233 226 218 215 208 204
246 252 260 267 273 277 281 282 247 242 254 246 250 263 280 278 289 289 279 272 271 273 277 272 273 270 266 261 256 249 236 231 230 230 230 231 230 229 226 219 213 211 208
242 254 262 268 271 273 277 283 291 269 234 236 240 241 245 265 276 276 273 270 261 243 250 261 267 269 264 260 259 254 247 237 231 229 228 227 227 226 224 220 214 211 209
238 245 246 258 264 270 274 279 283 290 295 288 249 229 233 243 254 259 260 265 260 235 248 259 265 267 264 260 257 253 248 240 233 229 226 226 225 223 220 220 216 212 207
238 245 244 253 261 265 269 273 277 281 284 289 295 269 220 231 236 241 233 251 273 276 267 264 267 267 263 259 255 251 245 238 234 229 226 223 221 221 220 219 218 209 207
241 241 243 250 259 262 264 269 275 280 284 288 291 294 301 300 293 271 244 262 277 282 280 274 272 271 268 261 253 247 242 238 233 229 226 222 221 220 220 219 216 210 206
255 243 213 235 252 260 266 271 276 281 284 287 290 301 326 305 301 298 293 285 285 290 288 281 277 270 263 258 251 245 241 239 234 229 223 219 217 219 219 220 219 215 209
259 255 246 243 250 255 264 270 273 277 280 284 289 282 212 279 299 303 304 299 296 297 295 288 280 273 266 259 254 251 248 242 236 229 223 220 217 218 217 214 214 212 208
263 257 253 249 250 247 249 260 267 273 277 282 288 296 299 305 308 307 309 309 304 301 302 299 291 284 277 266 258 254 254 253 244 234 225 220 216 214 216 213 210 205 204
271 260 256 255 252 255 256 260 265 271 277 282 289 295 303 306 304 308 309 309 305 304 306 305 302 299 294 285 272 262 260 265 264 248 235 228 220 215 212 213 211 205 202
271 260 256 257 260 259 260 264 269 275 281 285 291 301 307 307 307 309 312 308 308 311 312 309 303 299 296 292 287 279 274 262 265 270 249 235 225 219 214 210 209 204 198
275 267 263 261 258 261 263 264 273 282 284 287 295 301 305 309 311 315 318 318 322 324 320 312 306 301 297 291 293 301 281 245 246 260 259 243 229 220 214 210 206 202 196
Height
1527 1525 1524 1523 1522 1521 1519 1517 1515 1513 1511 1509 1507 1505 1503 1501 1499 1498 1497 1496 1494 1493 1492 1492 1490 1490 1490 1490 1489 1489 1488 1488 1486 1484 1484 1482 1481 1480 1479 1479 1479 1480 1482
1523 1522 1521 1520 1518 1517 1516 1514 1511 1509 1507 1505 1502 1500 1498 1497 1495 1493 1492 1491 1490 1488 1487 1487 1486 1485 1484 1484 1483 1483 1483 1482 1482 1480 1479 1479 1477 1476 1475 1475 1475 1476 1477
1520 1519 1518 1517 1515 1513 1511 1509 1507 1504 1502 1500 1498 1495 1493 1492 1490 1488 1487 1485 1484 1483 1482 1481 1480 1480 1479 1479 1478 1478 1477 1477 1477 1476 1475 1474 1474 1473 1472 1471 1471 1472 1473
1517 1516 1515 1513 1512 1510 1507 1505 1502 1500 1497 1495 1493 1490 1488 1486 1485 1483 1482 1480 1479 1477 1476 1475 1474 1474 1473 1473 1472 1472 1472 1472 1471 1471 1470 1470 1469 1469 1468 1468 1467 1468 1469
1513 1513 1511 1510 1508 1505 1503 1501 1498 1495 1493 1490 1488 1485 1483 1481 1480 1479 1477 1476 1474 1472 1470 1469 1468 1467 1467 1466 1467 1467 1467 1466 1466 1466 1465 1465 1465 1465 1465 1464 1464 1464 1465
1509 1509 1508 1506 1504 1501 1499 1496 1493 1491 1488 1485 1483 1480 1478 1477 1476 1473 1471 1469 1468 1466 1464 1463 1462 1461 1459 1459 1459 1459 1460 1460 1461 1461 1460 1460 1460 1461 1461 1461 1461 1461 1461
1506 1505 1504 1502 1500 1497 1495 1492 1489 1486 1483 1481 1478 1475 1473 1471 1469 1467 1465 1463 1461 1460 1458 1457 1456 1456 1454 1453 1452 1451 1452 1452 1453 1454 1455 1455 1456 1457 1457 1457 1457 1457 1458
1503 1501 1500 1498 1496 1493 1490 1487 1484 1481 1479 1476 1473 1470 1468 1466 1463 1461 1459 1457 1455 1454 1452 1450 1449 1448 1448 1447 1446 1446 1446 1446 1446 1446 1447 1448 1451 1452 1452 1453 1453 1454 1454
1499 1497 1496 1494 1491 1488 1486 1483 1480 1477 1474 1471 1468 1466 1462 1460 1458 1455 1453 1451 1450 1448 1446 1444 1442 1441 1441 1439 1439 1439 1439 1439 1440 1440 1441 1442 1443 1445 1447 1449 1450 1451 1450
1495 1493 1491 1489 1486 1483 1480 1477 1475 1472 1469 1466 1463 1461 1457 1455 1452 1450 1448 1446 1444 1442 1440 1438 1436 1434 1434 1432 1432 1432 1431 1432 1433 1434 1434 1434 1436 1438 1440 1442 1445 1446 1447
1490 1488 1486 1484 1481 1478 1475 1472 1470 1467 1464 1461 1458 1455 1452 1449 1447 1444 1442 1440 1439 1436 1434 1432 1431 1428 1427 1425 1424 1424 1424 1425 1426 1427 1427 1428 1430 1432 1434 1436 1438 1441 1443
1484 1483 1481 1479 1477 1474 1471 1468 1465 1462 1459 1456 1453 1450 1448 1445 1442 1439 1437 1435 1432 1430 1428 1427 1426 1423 1421 1419 1418 1417 1417 1417 1419 1420 1421 1422 1423 1425 1428 1430 1432 1435 1438
1479 1478 1476 1474 1472 1469 1466 1463 1461 1458 1455 1452 1449 1446 1444 1441 1438 1434 1432 1429 1427 1424 1423 1421 1419 1417 1415 1413 1412 1411 1411 1411 1412 1413 1414 1415 1417 1420 1422 1424 1427 1429 1432
1474 1473 1471 1469 1467 1464 1461 1459 1457 1454 1451 1448 1445 1442 1439 1436 1434 1431 1429 1425 1422 1419 1417 1415 1413 1411 1409 1407 1406 1405 1404 1405 1405 1407 1408 1410 1412 1414 1416 1418 1421 1424 1427
1469 1467 1466 1464 1462 1459 1456 1453 1451 1448 1446 1443 1441 1438 1435 1432 1430 1426 1423 1421 1418 1415 1412 1410 1408 1406 1404 1402 1401 1400 1399 1399 1399 1400 1402 1404 1406 1408 1410 1413 1416 1419 1422
1463 1462 1461 1460 1457 1455 1452 1449 1445 1442 1439 1437 1434 1431 1428 1426 1423 1420 1417 1415 1412 1409 1406 1404 1402 1400 1398 1397 1396 1394 1394 1393 1394 1395 1396 1398 1400 1402 1405 1407 1410 1413 1416
1456 1456 1455 1454 1452 1449 1447 1444 1441 1438 1434 1431 1428 1426 1423 1420 1418 1415 1412 1409 1406 1403 1400 1398 1396 1394 1393 1391 1390 1389 1389 1388 1388 1389 1391 1393 1395 1397 1400 1402 1405 1408 1411
1449 1449 1448 1447 1445 1443 1441 1439 1436 1433 1430 1427 1424 1421 1418 1415 1412 1409 1406 1403 1400 1397 1394 1393 1391 1389 1387 1386 1385 1384 1384 1384 1384 1384 1386 1387 1389 1392 1394 1397 1400 1402 1406
1442 1442 1442 1441 1439 1438 1435 1433 1430 1428 1425 1422 1419 1417 1413 1410 1407 1404 1401 1398 1395 1393 1390 1387 1385 1384 1382 1381 1380 1379 1379 1379 1379 1380 1381 1382 1384 1387 1389 1392 1395 1398 1401
1435 1435 1434 1433 1433 1431 1429 1427 1425 1423 1420 1417 1414 1412 1410 1407 1403 1400 1397 1394 1391 1388 1385 1382 1380 1378 1377 1376 1375 1375 1375 1375 1375 1375 1377 1378 1380 1382 1385 1387 1390 1393 1396
1429 1428 1427 1426 1425 1425 1423 1421 1419 1417 1415 1412 1410 1408 1405 1402 1399 1396 1392 1389 1386 1383 1380 1377 1375 1373 1372 1372 1371 1371 1371 1371 1371 1372 1373 1374 1376 1378 1380 1383 1386 1388 1391
1422 1421 1420 1420 1419 1418 1417 1415 1414 1411 1409 1407 1405 1403 1400 1398 1395 1391 1388 1385 1382 1379 1376 1373 1371 1369 1368 1367 1367 1366 1366 1367 1367 1368 1369 1370 1372 1374 1376 1378 1381 1384 1387
1415 1414 1413 1412 1412 1411 1409 1409 1408 1406 1404 1402 1401 1399 1396 1394 1391 1388 1385 1382 1378 1375 1372 1369 1367 1365 1364 1363 1362 1362 1362 1362 1363 1364 1365 1366 1368 1370 1372 1374 1377 1379 1382
1409 1408 1407 1406 1406 1405 1404 1403 1402 1400 1399 1398 1396 1394 1392 1390 1387 1384 1381 1378 1375 1372 1369 1366 1363 1362 1360 1359 1358 1358 1357 1358 1359 1360 1361 1362 1364 1366 1368 1370 1372 1375 1378
1403 1402 1401 1400 1400 1399 1399 1398 1397 1395 1394 1393 1392 1390 1388 1386 1383 1381 1378 1375 1372 1369 1366 1363 1361 1358 1356 1354 1353 1353 1352 1353 1354 1355 1356 1358 1360 1362 1364 1366 1368 1371 1374
1398 1396 1395 1394 1394 1394 1393 1392 1392 1391 1390 1389 1388 1386 1384 1382 1380 1378 1375 1372 1370 1367 1364 1361 1358 1355 1352 1350 1348 1347 1347 1348 1349 1350 1352 1354 1356 1358 1360 1362 1365 1367 1370